Regional Weather Roundup
Issued by NWS

Home | Current Version | Previous Version | Graphics & Text | Print | Product List | Glossary On
Versions: 1 2 3 4 5 6 7 8 9 10 11 12 13 14 15 16 17 18 19 20 21 22 23 24 25 26 27 28 29 30 31 32 33 34 35 36 37 38 39 40 41 42 43 44 45 46 47 48 49 50
000
ASUS43 KDTX 301710
RWRMI
MICHIGAN HOURLY REGIONAL WEATHER ROUNDUP
NATIONAL WEATHER SERVICE DETROIT/PONTIAC MI
100 PM EDT WED JUL 30 2014

NOTE: "FAIR" INDICATES FEW OR NO CLOUDS BELOW 12,000 FEET WITH NO
SIGNIFICANT WEATHER AND/OR OBSTRUCTION TO VISIBILITY.

MIZ047>049-052>055-059>063-066>070-074>076-081>083-301800-
SOUTHEAST LOWER MICHIGAN

CITY           SKY/WX    TMP DP  RH WIND       PRES   REMARKS
ADRIAN           N/A     73  57  57 W8        30.02F
ALMA           PTSUNNY   69  53  56 N5        30.02F
ANN ARBOR        N/A     70  55  59 NW3       30.02S
BAD AXE          N/A     68  53  58 NW6       30.00S
DETROIT CITY   PTSUNNY   74  55  51 N9        30.00F
DETROIT        PTSUNNY   72  58  61 SW5       30.01F
FLINT          PTSUNNY   70  56  61 NW6       30.02S
GROSSE ILE       N/A     73  59  60 W3        30.00S
HILLSDALE        N/A     73  57  58 W5        30.03S
HOWELL         PTSUNNY   68  57  67 NW5       30.02F

CITY           SKY/WX    TMP DP  RH WIND       PRES   REMARKS
JACKSON        PTSUNNY   70  57  63 W8        30.03S
LAMBERTVILLE     N/A     73  57  56 W3        30.02S
LANSING        PTSUNNY   69  56  62 VRB5      30.03S
LAPEER         NOT AVBL
MASON          PTSUNNY   69  57  64 SW5       30.02F
MONROE         PTSUNNY   72  59  64 W7        30.00S
MT. CLEMENS    MOSUNNY   71  56  61 VRB3      30.00S
PONTIAC        PTSUNNY   69  56  62 NW8       30.01F
PORT HOPE        N/A     65  56  72 CALM      30.00R
PORT HURON     CLOUDY    68  57  68 W6        30.00F
TRI CITIES       N/A     71  50  47 VRB3      30.02S
YPSILANTI      PTSUNNY   73  57  57 CALM      30.01F
$$
MIZ043>046-050>051-056>058-064>065-071>073-077>080-301800-
SOUTHWEST LOWER MICHIGAN

CITY           SKY/WX    TMP DP  RH WIND       PRES   REMARKS
BATTLE CREEK   PTSUNNY   71  57  61 W9        30.03F
BENTON HARBOR    N/A     68  59  73 W6        30.05R
BIG RAPIDS     PTSUNNY   70  45  41 CALM      30.01S
COLDWATER      PTSUNNY   76  57  50 W13G18    30.03S
HOLLAND          N/A     70  60  70 W9        30.04S
GRAND RAPIDS     N/A     73  58  59 NW9       30.03S
KALAMAZOO      PTSUNNY   73  56  54 W10       30.03S
MARSHALL       PTSUNNY   73  59  61 W9        30.02F
MUSKEGON         N/A     69  57  65 W9        30.03S
$$
MIZ016>042-301800-
NORTHERN LOWER MICHIGAN

CITY           SKY/WX    TMP DP  RH WIND       PRES   REMARKS
ALPENA           N/A     68  53  58 N12       29.99F
BEAVER ISLAND    N/A     64  49  59 NW3       30.02S
BELLAIRE         N/A     67  52  58 W3        30.01S
CADILLAC         N/A     66  51  57 W3        30.02S
CHARLEVOIX       N/A     65  55  68 NW6       30.05S
FRANKFORT        N/A     66  55  67 W8        30.03F
GAYLORD          N/A     66  50  56 W12G17    30.01S
GRAYLING       PTSUNNY   69  51  53 NW12      30.01F
HARBOR SPRINGS   N/A     63  56  79 SW10      30.01S
HOUGHTON LAKE    N/A     66  51  58 SW8       30.02S
MANISTEE         N/A     66  52  59 W8        30.04S
OSCODA         CLOUDY    63  56  78 E8        30.00S
PELLSTON         N/A     67  48  50 NW7       30.00F
TRAVERSE CITY  PTSUNNY   67  53  61 NE7       30.00S
$$
MIZ007>008-015-301800-
EASTERN UPPER MICHIGAN

CITY           SKY/WX    TMP DP  RH WIND       PRES   REMARKS
KINROSS          N/A     64  50  59 NW7       29.99F
MACKINAC ISLAN   N/A     62  52  71 S3        30.00S
NEWBERRY         N/A     64  50  59 N7        30.00S
S. S. MARIE      N/A     64  50  60 W9        29.99S
$$
MIZ004>006-011>014-085-301800-
CENTRAL UPPER MICHIGAN

CITY           SKY/WX    TMP DP  RH WIND       PRES   REMARKS
MANISTIQUE       N/A     68  50  51 CALM      30.01S
ESCANABA         N/A     68  46  45 W3        30.02F
MENOMINEE      PTSUNNY   66  54  63 SE7       30.03S
SAWYER-GWINN   MOSUNNY   66  48  52 CALM      30.02S
$$
MIZ001>003-009>011-084-301800-
WESTERN UPPER MICHIGAN

CITY           SKY/WX    TMP DP  RH WIND       PRES   REMARKS
IRON MOUNTAIN    N/A     69  46  43 CALM      30.02F
HOUGHTON         N/A     62  53  72 W14       30.00F
COPPER HARBOR    N/A     64  49  57 NW8       29.97F
$$

ABBREVIATIONS USED IN REMARKS
   TC - TEMPERATURE IN CELSIUS
  WCI - WIND CHILL INDEX
   HX - HEAT INDEX
  VSB - VISIBILITY




USA.gov is the U.S. government's official web portal to all federal, state and local government web resources and services.